[[{"header":{"parameterUnit":"m.s-1","parameterCategory":2,"la1":30.2991,"la2":30.254,"lo1":-89.0895,"lo2":-89.0444,"dy":0.0017,"dx":0.0017,"nx":28,"ny":28,"refTime":"2024-04-19T09:00:00:Z","depth":"0","parameterNumber":2,"parameterNumberName":"U-component_of_CURRENTS"},"data":[0,0,0,0,0,0,0,0,0,0,0,0,0,0,0,0,0,0,0,0,0,0,0,0,0,0,0,0,0,0,0,0,0,0,0,0,0,0,0,0,0,0,0,0,0,0,0,0,0,0,0,0,0,0,0,0,0,0,0.182,0.1821,0,0.1834,0.1834,0.1834,0.1794,0.1793,0.1792,0.1791,0.175,0.1749,0.1749,0,0,0,0,0,0,0,0,0,0,0,0,0,0.175,0.1751,0.182,0.1821,0.1821,0.1835,0.1834,0.1834,0.1794,0.1793,0.1792,0.1791,0.175,0.1749,0.1749,0,0,0,0,0,0,0,0,0,0,0,0,0,0.177,0.1751,0.182,0.1805,0.1805,0.1835,0.1834,0.1834,0.1794,0.1793,0.1791,0.179,0.175,0.1749,0.1749,0.1774,0,0,0.1748,0.1748,0,0,0,0,0,0,0,0,0.1769,0.1773,0.1807,0.1807,0.1806,0.1814,0.1795,0.1812,0.1794,0.1794,0.1791,0.1789,0.1769,0.1767,0.1769,0.1772,0.177,0.1748,0.1747,0.1747,0.1747,0,0,0,0,0,0,0,0.1768,0.1772,0.1822,0.1808,0.1807,0.1796,0.1797,0.1798,0.1785,0.1794,0.1792,0.18,0.1768,0.1769,0.1767,0.1769,0.1748,0.1747,0.1747,0.1747,0.1762,0.1762,0,0,0,0,0,0,0.1776,0.1771,0.1822,0.1823,0.1788,0.1798,0.1799,0.181,0.1786,0.1783,0.1801,0.1798,0.177,0.1768,0.1765,0.1804,0.1747,0.1747,0.1747,0.1761,0.1762,0.1763,0,0,0,0,0,0,0.1775,0.1781,0.1821,0.18,0.1804,0.1802,0.1813,0.1811,0.1811,0.1793,0.1788,0.1804,0.1769,0.1766,0.1769,0.1801,0.1747,0.1746,0.176,0.1761,0.1762,0.1874,0,0,0,0,0,0,0.1772,0.178,0.1792,0.18,0.1806,0.1846,0.1815,0.1812,0.182,0.1816,0.1794,0.1789,0.1768,0.177,0.1769,0.18,0.1746,0.176,0.1761,0.1762,0.1869,0.1878,0.1886,0,0,0,0,0,0.177,0.1798,0.1793,0.1799,0.1822,0.1847,0.1849,0.1839,0.1822,0.1831,0.1813,0.1789,0.1776,0.1771,0.1769,0.1801,0.1759,0.176,0.1762,0.1866,0.1877,0.1886,0,0,0,0,0,0,0.1789,0.1798,0.1791,0.1824,0.1837,0.1842,0.186,0.1847,0.1842,0.1839,0.1806,0.1801,0.1818,0.1788,0.1783,0.1804,0.1761,0.1762,0.184,0.185,0.1858,0.1879,0.1746,0,0,0,0,0,0.1798,0.1812,0.1823,0.1852,0.1861,0.1859,0.1869,0.1864,0.1863,0.1859,0.1841,0.1823,0.1825,0.1819,0.1814,0.1829,0.1847,0.1842,0.1851,0.1858,0.1871,0.1925,0.1941,0.1767,0.1767,0.1767,0,0,0.1819,0.1823,0.1835,0.1855,0.1865,0.1886,0.1861,0.1888,0.1902,0.1857,0.1871,0.1861,0.1836,0.1857,0.186,0.1833,0.1923,0.186,0.1867,0.1876,0.1928,0.1946,0.1961,0.1768,0.1768,0.1768,0,0,0.1863,0.187,0.1892,0.1902,0.192,0.192,0.1928,0.1936,0.1937,0.1955,0.1929,0.1938,0.1926,0.1924,0.1919,0.1968,0.1973,0.1957,0.2015,0.2067,0.2083,0.2097,0.2179,0.2199,0.1954,0.1954,0.1954,0,0.1893,0.1912,0.1907,0.1929,0.1942,0.1935,0.1963,0.1973,0.1978,0.1993,0.197,0.1986,0.1963,0.1999,0.2012,0.1993,0.2031,0.1984,0.2083,0.2097,0.2109,0.219,0.2211,0.196,0.1959,0.1958,0.1958,0,0.1939,0.196,0.1981,0.1995,0.2008,0.204,0.2046,0.2065,0.2063,0.207,0.211,0.2094,0.21,0.2096,0.207,0.2141,0.2147,0.21,0.2068,0.2135,0.2214,0.2234,0.1967,0.1965,0.1964,0.1962,0,0,0.2008,0.2011,0.2017,0.2026,0.2045,0.2061,0.21,0.2134,0.2162,0.2179,0.2222,0.2233,0.223,0.2223,0.2201,0.2238,0.2365,0.221,0.221,0.2312,0.2521,0.2555,0.2579,0.2343,0.2346,0.2349,0.2556,0,0.2052,0.2077,0.2073,0.2114,0.2135,0.2141,0.2172,0.2201,0.2222,0.2262,0.228,0.2306,0.2277,0.2284,0.2328,0.2344,0.2417,0.2316,0.2422,0.2427,0.2465,0.2603,0.2544,0.2726,0.2575,0.2578,0.2581,0,0.2109,0.2109,0.2137,0.216,0.2172,0.219,0.2236,0.2267,0.2325,0.2343,0.2393,0.2399,0.2467,0.2416,0.2541,0.2482,0.2524,0.2542,0.2549,0.2553,0.2497,0.2625,0.2767,0.2649,0.2611,0.2609,0.2606,0,0.2142,0.2169,0.2179,0.2187,0.2206,0.2228,0.2247,0.2295,0.2326,0.2399,0.2433,0.2511,0.2546,0.2619,0.2672,0.2617,0.2815,0.2734,0.2822,0.2825,0.2782,0.2776,0.2837,0.285,0.285,0.2849,0.2849,0,0.2195,0.2218,0.219,0.2199,0.2229,0.224,0.2289,0.2325,0.2376,0.243,0.2474,0.2535,0.2596,0.2703,0.2744,0.288,0.289,0.2886,0.2895,0.2821,0.2817,0.2712,0.2611,0.2857,0.2855,0.2854,0.2852,0,0.2249,0.2229,0.2252,0.2246,0.2247,0.2272,0.23,0.2336,0.2384,0.246,0.2488,0.2583,0.2732,0.2824,0.2952,0.2976,0.3004,0.3124,0.3057,0.3054,0.2993,0.29,0.2877,0.28,0.3263,0.3265,0.3267,0,0.2284,0.2289,0.2274,0.2272,0.227,0.2292,0.231,0.2344,0.238,0.2494,0.2538,0.2691,0.2799,0.3033,0.3134,0.3287,0.3108,0.3288,0.3158,0.3038,0.294,0.2764,0.2685,0.3162,0.3163,0.3164,0.3164,0,0.2343,0.2325,0.2316,0.2306,0.2309,0.2317,0.2343,0.2362,0.2422,0.2485,0.2588,0.268,0.2927,0.3046,0.3252,0.3328,0.3111,0.3308,0.319,0.2899,0.2703,0.2615,0.2991,0.3171,0.317,0.317,0.317,0.3169,0.2377,0.2375,0.2341,0.2334,0.2334,0.2328,0.2328,0.236,0.2406,0.2477,0.2587,0.2698,0.2892,0.3174,0.3243,0.3283,0.319,0.3184,0.3101,0.295,0.2806,0.3227,0.3395,0.3396,0.3396,0.3397,0.3397,0,0.2395,0.2373,0.237,0.234,0.2326,0.2327,0.2335,0.2325,0.236,0.2453,0.2529,0.2692,0.2838,0.2982,0.3116,0.3057,0.2921,0.2971,0.2681,0.2628,0.3036,0.296,0.3032,0.3032,0.3032,0.3032,0.3032,0.3032,0.2395,0.2375,0.2357,0.2322,0.2302,0.2269,0.2258,0.2261,0.2303,0.2352,0.2411,0.2474,0.2629,0.2762,0.2762,0.2754,0.251,0.2455,0.2383,0.263,0.2641,0.2651,0.2558,0.2544,0.2543,0.1908,0.1903,0.1899]},{"header":{"parameterUnit":"m.s-1","parameterCategory":2,"la1":30.2991,"la2":30.254,"lo1":-89.0895,"lo2":-89.0444,"dy":0.0017,"dx":0.0017,"nx":28,"ny":28,"refTime":"2024-04-19T09:00:00:Z","depth":"0","parameterNumber":3,"parameterNumberName":"V-component_of_CURRENTS"},"data":[0,0,0,0,0,0,0,0,0,0,0,0,0,0,0,0,0,0,0,0,0,0,0,0,0,0,0,0,0,0,0,0,0,0,0,0,0,0,0,0,0,0,0,0,0,0,0,0,0,0,0,0,0,0,0,0,0,0,0.0874,0.0873,0,0.0759,0.0758,0.0756,0.0693,0.0693,0.0693,0.0693,0.0539,0.0535,0.0531,0,0,0,0,0,0,0,0,0,0,0,0,0,0.099,0.0988,0.0874,0.0873,0.0872,0.0759,0.0757,0.0756,0.0693,0.0693,0.0693,0.0693,0.054,0.0535,0.053,0,0,0,0,0,0,0,0,0,0,0,0,0,0.0913,0.0988,0.0875,0.0827,0.0822,0.0759,0.0757,0.0755,0.0693,0.0693,0.0693,0.0693,0.0542,0.0536,0.053,0.0495,0,0,0.0511,0.0509,0,0,0,0,0,0,0,0,0.0918,0.0909,0.0836,0.083,0.0824,0.0741,0.0742,0.0667,0.0693,0.0741,0.0693,0.0693,0.0603,0.0592,0.057,0.0488,0.0482,0.0511,0.0507,0.0505,0.0503,0,0,0,0,0,0,0,0.0923,0.0913,0.0828,0.0834,0.0827,0.0795,0.0784,0.0727,0.0673,0.0737,0.0732,0.0721,0.06,0.0576,0.0566,0.0479,0.0511,0.0506,0.0502,0.05,0.034,0.034,0,0,0,0,0,0,0.0941,0.0918,0.0832,0.0825,0.0872,0.0793,0.0781,0.0767,0.0674,0.0661,0.0721,0.0718,0.0587,0.0573,0.056,0.0515,0.0505,0.0499,0.0496,0.0341,0.034,0.0339,0,0,0,0,0,0,0.0944,0.0935,0.0836,0.087,0.0855,0.0792,0.0776,0.0765,0.0738,0.0663,0.0648,0.0706,0.0586,0.0569,0.0506,0.0509,0.0496,0.0491,0.0342,0.0341,0.034,0.0424,0,0,0,0,0,0,0.0948,0.0936,0.0933,0.0871,0.0854,0.08,0.0776,0.0763,0.0732,0.0727,0.0645,0.0631,0.0585,0.0516,0.05,0.05,0.0486,0.0342,0.0341,0.034,0.0422,0.0426,0.0429,0,0,0,0,0,0.0953,0.0948,0.0934,0.0923,0.0851,0.08,0.0788,0.0742,0.0732,0.0718,0.0663,0.0633,0.0497,0.051,0.0492,0.0491,0.0343,0.0342,0.034,0.042,0.0425,0.0429,0,0,0,0,0,0,0.0991,0.094,0.0923,0.0902,0.0856,0.079,0.0777,0.0745,0.0692,0.0691,0.0621,0.0602,0.0551,0.0503,0.0519,0.0439,0.0416,0.0411,0.0483,0.0487,0.0491,0.0525,0.0481,0,0,0,0,0,0.1002,0.0987,0.093,0.0912,0.0897,0.0839,0.0814,0.0783,0.0728,0.0705,0.0646,0.0584,0.0531,0.0497,0.0441,0.0393,0.0369,0.0379,0.0383,0.0387,0.0401,0.0368,0.0371,0.0335,0.0335,0.0335,0,0,0.1009,0.0981,0.097,0.092,0.0887,0.0865,0.0824,0.0791,0.0773,0.0696,0.0653,0.0595,0.0521,0.0472,0.0445,0.0432,0.0383,0.0385,0.0389,0.0401,0.0367,0.0371,0.0374,0.0334,0.0334,0.0334,0,0,0.1021,0.0998,0.0992,0.0964,0.092,0.0885,0.0879,0.0815,0.0789,0.0737,0.0684,0.0629,0.0539,0.0491,0.0455,0.0442,0.0407,0.0421,0.0464,0.0432,0.0436,0.0439,0.0419,0.0419,0.042,0.042,0.042,0,0.103,0.1017,0.098,0.0971,0.0956,0.09,0.0892,0.0857,0.0778,0.0761,0.0735,0.0616,0.0551,0.0501,0.0496,0.0454,0.0436,0.0459,0.0441,0.0443,0.0445,0.0423,0.0423,0.0424,0.0423,0.0423,0.0423,0,0.1033,0.1031,0.1028,0.1002,0.098,0.0964,0.092,0.0896,0.0861,0.0817,0.0762,0.0675,0.0609,0.0575,0.053,0.0504,0.0489,0.0457,0.0441,0.0454,0.043,0.0428,0.0429,0.0428,0.0427,0.0426,0,0,0.1011,0.103,0.1024,0.1037,0.0999,0.0981,0.097,0.0934,0.0933,0.0857,0.0846,0.0743,0.0703,0.066,0.0596,0.056,0.0549,0.0521,0.0517,0.0522,0.0493,0.0506,0.0505,0.052,0.052,0.052,0.0476,0,0.1016,0.104,0.1034,0.1044,0.1052,0.1025,0.1023,0.099,0.0951,0.0927,0.085,0.0806,0.0734,0.071,0.0664,0.0579,0.0547,0.0565,0.0461,0.0458,0.0485,0.0504,0.0528,0.0492,0.0473,0.0473,0.0473,0,0.0996,0.1025,0.1055,0.1092,0.1092,0.1092,0.109,0.1081,0.1044,0.1015,0.0966,0.0908,0.0843,0.0786,0.0665,0.0683,0.0602,0.0534,0.053,0.0515,0.0468,0.0471,0.0489,0.0306,0.0469,0.0469,0.047,0,0.0984,0.1024,0.1062,0.1068,0.11,0.1116,0.1127,0.1106,0.1107,0.1078,0.1076,0.0988,0.0952,0.0845,0.0715,0.069,0.0597,0.0537,0.0472,0.0472,0.0458,0.0458,0.0307,0.0462,0.0462,0.0462,0.0463,0,0.0969,0.0989,0.1071,0.1084,0.1136,0.1148,0.118,0.1178,0.1179,0.1191,0.1128,0.1122,0.0968,0.0896,0.0762,0.0632,0.0632,0.0495,0.0465,0.0487,0.049,0.0302,0.0223,0.0461,0.0461,0.0462,0.0462,0,0.0918,0.0974,0.1022,0.1099,0.113,0.116,0.1222,0.1243,0.125,0.127,0.1271,0.1217,0.1145,0.1003,0.0837,0.0701,0.0493,0.0519,0.0568,0.0545,0.0302,0.0228,0.0123,0.0063,0.043,0.043,0.043,0,0.0886,0.0914,0.1028,0.1074,0.1109,0.1173,0.122,0.126,0.1287,0.1328,0.1342,0.1308,0.1296,0.1087,0.087,0.0676,0.0519,0.0531,0.0476,0.0307,0.0201,0.0172,0.0126,0.0485,0.0485,0.0486,0.0486,0,0.0824,0.0876,0.0931,0.1044,0.1114,0.1196,0.1273,0.1311,0.1369,0.1414,0.1461,0.1476,0.133,0.1164,0.0925,0.0767,0.0441,0.0533,0.0335,0.0225,0.0207,0.013,0.0497,0.049,0.049,0.0489,0.0489,0.0489,0.0769,0.0807,0.0906,0.1001,0.1098,0.1206,0.1263,0.1357,0.1442,0.1537,0.1562,0.1649,0.1421,0.1118,0.087,0.0443,0.0463,0.0284,0.0208,0.0193,0.0139,0.0532,0.0505,0.0504,0.0504,0.0504,0.0504,0,0.0697,0.077,0.0858,0.0987,0.108,0.1155,0.1285,0.1351,0.1465,0.1634,0.1715,0.1753,0.1413,0.1063,0.0507,0.0162,0.0056,-0.0022,-0.0095,-0.0129,0.0188,0.0191,0.0123,0.0123,0.0124,0.0124,0.0124,0.0124,0.0665,0.0728,0.0796,0.0935,0.1034,0.1156,0.1232,0.136,0.151,0.1742,0.1909,0.2044,0.1807,0.0733,-0.0023,-0.019,-0.0422,-0.0424,-0.0558,-0.0401,-0.038,-0.036,-0.038,-0.0567,-0.0567,-0.0828,-0.0831,-0.0834]}],[{"header":{"parameterUnit":"m.s-1","parameterCategory":2,"la1":30.2991,"la2":30.254,"lo1":-89.0895,"lo2":-89.0444,"dy":0.0017,"dx":0.0017,"nx":28,"ny":28,"refTime":"2024-04-19T09:00:00:Z","depth":"2","parameterNumber":2,"parameterNumberName":"U-component_of_CURRENTS"},"data":[0,0,0,0,0,0,0,0,0,0,0,0,0,0,0,0,0,0,0,0,0,0,0,0,0,0,0,0,0,0,0,0,0,0,0,0,0,0,0,0,0,0,0,0,0,0,0,0,0,0,0,0,0,0,0,0,0,0,0.1083,0.1084,0,0.1123,0.1124,0.1124,0.1144,0.1144,0.1144,0.1144,0.1185,0.1186,0.1187,0,0,0,0,0,0,0,0,0,0,0,0,0,0.1015,0.1016,0.1083,0.1084,0.1084,0.1123,0.1124,0.1124,0.1144,0.1144,0.1144,0.1145,0.1185,0.1186,0.1187,0,0,0,0,0,0,0,0,0,0,0,0,0,0.1047,0.1016,0.1083,0.11,0.1102,0.1123,0.1124,0.1124,0.1144,0.1144,0.1144,0.1145,0.1184,0.1186,0.1187,0.1191,0,0,0.1191,0.1192,0,0,0,0,0,0,0,0,0.1045,0.1049,0.1097,0.1099,0.1101,0.113,0.1115,0.1147,0.1144,0.1126,0.1144,0.1145,0.1168,0.117,0.1175,0.1193,0.1195,0.1191,0.1192,0.1193,0.1193,0,0,0,0,0,0,0,0.1043,0.1048,0.1097,0.1098,0.1101,0.1103,0.1108,0.1121,0.1144,0.1128,0.113,0.1137,0.1169,0.1174,0.1176,0.1195,0.1191,0.1193,0.1193,0.1194,0.1235,0.1235,0,0,0,0,0,0,0.1042,0.1046,0.1096,0.1099,0.1075,0.1104,0.111,0.112,0.1144,0.1148,0.1137,0.1138,0.1171,0.1175,0.1178,0.1198,0.1193,0.1194,0.1195,0.1235,0.1235,0.1235,0,0,0,0,0,0,0.104,0.1046,0.1094,0.1074,0.1081,0.1106,0.1116,0.112,0.1128,0.1151,0.1155,0.1141,0.1171,0.1176,0.1197,0.1199,0.1195,0.1196,0.1235,0.1235,0.1235,0.1229,0,0,0,0,0,0,0.1038,0.1045,0.105,0.1074,0.1082,0.111,0.1116,0.1121,0.1133,0.1134,0.1156,0.116,0.1172,0.1195,0.1198,0.1201,0.1197,0.1234,0.1235,0.1235,0.1229,0.123,0.123,0,0,0,0,0,0.1035,0.1048,0.105,0.1056,0.1088,0.1111,0.1115,0.1132,0.1133,0.1138,0.1155,0.1159,0.12,0.1196,0.12,0.1203,0.1234,0.1235,0.1235,0.1229,0.123,0.123,0,0,0,0,0,0,0.1028,0.1052,0.1054,0.1075,0.109,0.1115,0.1126,0.1131,0.1147,0.115,0.1165,0.1171,0.1192,0.1198,0.1193,0.1217,0.1216,0.1218,0.1211,0.1211,0.1211,0.121,0.1198,0,0,0,0,0,0.1026,0.1039,0.106,0.1076,0.1084,0.1101,0.1111,0.1121,0.114,0.1147,0.1161,0.1177,0.1196,0.1204,0.1222,0.1233,0.1254,0.1236,0.1237,0.1237,0.1239,0.1262,0.1264,0.1237,0.1237,0.1237,0,0,0.1029,0.1044,0.1051,0.1075,0.1089,0.1106,0.1108,0.1126,0.1137,0.1149,0.1169,0.1182,0.1201,0.1219,0.1227,0.1224,0.1262,0.1238,0.1238,0.124,0.1262,0.1265,0.1267,0.1238,0.1238,0.1238,0,0,0.1045,0.1053,0.1068,0.1081,0.1101,0.1111,0.1115,0.1135,0.114,0.1157,0.1172,0.1185,0.1208,0.1223,0.1233,0.1244,0.1266,0.1247,0.1243,0.1265,0.1267,0.127,0.1326,0.1333,0.1242,0.1242,0.1242,0,0.105,0.1071,0.1076,0.1096,0.111,0.1113,0.1133,0.1138,0.1161,0.117,0.1163,0.1203,0.121,0.124,0.1238,0.1244,0.1272,0.124,0.1265,0.1268,0.127,0.1327,0.1335,0.1242,0.1242,0.1242,0.1242,0,0.1075,0.1093,0.1105,0.1128,0.1139,0.1158,0.1166,0.1172,0.1172,0.1182,0.1205,0.1213,0.1241,0.1236,0.1237,0.1259,0.1281,0.1267,0.1264,0.1273,0.1332,0.134,0.1242,0.1242,0.1242,0.1242,0,0,0.1092,0.1118,0.1123,0.1139,0.1157,0.1173,0.1184,0.1202,0.1226,0.122,0.1255,0.1251,0.1256,0.1267,0.1271,0.1271,0.1309,0.1269,0.1271,0.1324,0.1387,0.1483,0.1501,0.1297,0.1298,0.1299,0.1431,0,0.1113,0.115,0.1156,0.1191,0.1211,0.1213,0.1232,0.1244,0.1255,0.1288,0.1279,0.1319,0.1269,0.1296,0.1282,0.1321,0.1327,0.1276,0.1371,0.1375,0.1457,0.1512,0.1261,0.1364,0.144,0.1441,0.1442,0,0.1136,0.116,0.1192,0.1229,0.1239,0.1256,0.1291,0.1311,0.1343,0.1356,0.137,0.1384,0.1406,0.1356,0.1395,0.1368,0.137,0.1378,0.1383,0.1478,0.1485,0.1363,0.1377,0.1456,0.1455,0.1454,0.1453,0,0.1142,0.1186,0.121,0.1222,0.1261,0.1276,0.1299,0.1331,0.1364,0.1416,0.1462,0.1471,0.1522,0.1499,0.1528,0.1461,0.1591,0.1506,0.1592,0.16,0.1409,0.1401,0.1517,0.1517,0.1516,0.1516,0.1516,0,0.116,0.1185,0.1218,0.1233,0.1273,0.1298,0.1348,0.1372,0.1434,0.1493,0.1506,0.1574,0.1557,0.1629,0.1591,0.167,0.1651,0.1619,0.1644,0.1407,0.1397,0.1481,0.1475,0.1521,0.152,0.1519,0.1518,0,0.1159,0.1181,0.1214,0.1257,0.1274,0.1303,0.1375,0.141,0.1483,0.1568,0.1598,0.1687,0.1793,0.1815,0.1848,0.1804,0.1837,0.1861,0.162,0.1615,0.18,0.1792,0.1936,0.194,0.1944,0.1947,0.195,0,0.1163,0.1177,0.122,0.1232,0.125,0.1303,0.1332,0.1413,0.1461,0.1635,0.1676,0.1841,0.1896,0.2043,0.1986,0.1994,0.2018,0.184,0.1651,0.1836,0.1845,0.1831,0.1818,0.1389,0.1387,0.1386,0.1384,0,0.1162,0.1169,0.1184,0.1212,0.124,0.1283,0.1343,0.1393,0.1506,0.1589,0.172,0.179,0.1928,0.1859,0.196,0.1904,0.1814,0.1813,0.2059,0.1358,0.1341,0.1344,0.1344,0.1369,0.137,0.1371,0.1372,0.1373,0.1149,0.1148,0.1157,0.1183,0.1207,0.1239,0.1267,0.134,0.142,0.1509,0.1633,0.1671,0.1707,0.1704,0.1701,0.1703,0.1778,0.1663,0.1657,0.1656,0.1605,0.1599,0.1667,0.167,0.1673,0.1675,0.1678,0,0.1128,0.1121,0.113,0.1149,0.1153,0.1186,0.125,0.126,0.1321,0.139,0.1442,0.1307,0.1312,0.1417,0.1338,0.1369,0.1217,0.1376,0.1124,0.1141,0.1156,0.1069,0.0994,0.0993,0.0992,0.0991,0,0,0.1116,0.1103,0.1105,0.1096,0.1099,0.1098,0.1119,0.1125,0.1164,0.1118,0.1105,0.1171,0.1296,0.1099,0.1094,0.1054,0.1079,0.1005,0.1536,0.125,0.1263,0.1296,0.1182,0,0,0,0,0]},{"header":{"parameterUnit":"m.s-1","parameterCategory":2,"la1":30.2991,"la2":30.254,"lo1":-89.0895,"lo2":-89.0444,"dy":0.0017,"dx":0.0017,"nx":28,"ny":28,"refTime":"2024-04-19T09:00:00:Z","depth":"2","parameterNumber":3,"parameterNumberName":"V-component_of_CURRENTS"},"data":[0,0,0,0,0,0,0,0,0,0,0,0,0,0,0,0,0,0,0,0,0,0,0,0,0,0,0,0,0,0,0,0,0,0,0,0,0,0,0,0,0,0,0,0,0,0,0,0,0,0,0,0,0,0,0,0,0,0,0.0346,0.0346,0,0.0286,0.0286,0.0285,0.0231,0.0231,0.023,0.0229,0.0122,0.012,0.0117,0,0,0,0,0,0,0,0,0,0,0,0,0,0.0419,0.0418,0.0346,0.0346,0.0345,0.0286,0.0286,0.0285,0.0231,0.0231,0.023,0.0229,0.0122,0.012,0.0117,0,0,0,0,0,0,0,0,0,0,0,0,0,0.0377,0.0417,0.0346,0.0311,0.0307,0.0286,0.0285,0.0285,0.0232,0.0231,0.023,0.0229,0.0123,0.012,0.0117,0.0117,0,0,0.0107,0.0105,0,0,0,0,0,0,0,0,0.0379,0.0374,0.0317,0.0313,0.0309,0.0264,0.0271,0.0226,0.0232,0.0261,0.0229,0.0228,0.0165,0.0159,0.0151,0.0112,0.0108,0.0106,0.0104,0.0103,0.0102,0,0,0,0,0,0,0,0.0382,0.0376,0.0323,0.0316,0.0311,0.0299,0.0291,0.0263,0.0219,0.0258,0.0254,0.0247,0.0163,0.0155,0.0148,0.0106,0.0106,0.0103,0.0101,0.01,0.0037,0.0038,0,0,0,0,0,0,0.0389,0.0379,0.0325,0.0321,0.0341,0.0298,0.029,0.028,0.0221,0.0211,0.0247,0.0244,0.0161,0.0152,0.0144,0.0116,0.0103,0.01,0.0098,0.0037,0.0037,0.0038,0,0,0,0,0,0,0.039,0.0384,0.0328,0.0348,0.034,0.0298,0.0287,0.028,0.0267,0.0213,0.0202,0.0242,0.016,0.0149,0.0121,0.0112,0.0098,0.0095,0.0037,0.0037,0.0038,0.0075,0,0,0,0,0,0,0.0393,0.0385,0.0386,0.0349,0.0339,0.0314,0.0288,0.0279,0.0264,0.0259,0.0205,0.0194,0.0158,0.0126,0.0117,0.0107,0.0093,0.0036,0.0037,0.0037,0.0073,0.0077,0.008,0,0,0,0,0,0.0396,0.0396,0.0386,0.038,0.0339,0.0314,0.0308,0.0275,0.0265,0.026,0.0228,0.0195,0.0123,0.0124,0.0114,0.0102,0.0036,0.0037,0.0037,0.0072,0.0076,0.0079,0,0,0,0,0,0,0.0426,0.039,0.0378,0.0367,0.0343,0.0305,0.0298,0.0281,0.0254,0.0248,0.0202,0.0189,0.0159,0.0133,0.0135,0.0088,0.0073,0.0072,0.0103,0.0106,0.0109,0.0113,0.009,0,0,0,0,0,0.0435,0.0427,0.039,0.0384,0.0372,0.0339,0.0327,0.0305,0.0275,0.0262,0.0226,0.0189,0.0156,0.0134,0.0102,0.008,0.0049,0.0066,0.007,0.0072,0.007,0.0024,0.0022,0.004,0.004,0.004,0,0,0.0448,0.0426,0.0423,0.0391,0.037,0.0358,0.0329,0.0311,0.0302,0.0255,0.0234,0.0199,0.0154,0.0126,0.011,0.0101,0.0053,0.0073,0.0076,0.0071,0.0024,0.0022,0.0021,0.0041,0.0041,0.004,0,0,0.0466,0.0447,0.0444,0.0426,0.0395,0.0375,0.0373,0.0335,0.0317,0.0296,0.0259,0.0224,0.0177,0.0141,0.0118,0.0122,0.0073,0.0109,0.0122,0.0078,0.0076,0.0074,0.0038,0.0032,0.0109,0.0109,0.0109,0,0.0481,0.0471,0.0441,0.0431,0.0423,0.0386,0.0385,0.0362,0.0323,0.031,0.0292,0.0222,0.0183,0.0144,0.014,0.0127,0.0096,0.0111,0.0081,0.0078,0.0075,0.0039,0.0032,0.011,0.011,0.011,0.011,0,0.0492,0.0486,0.0483,0.0461,0.045,0.0442,0.0408,0.0395,0.0373,0.0345,0.0304,0.0251,0.0207,0.0188,0.0161,0.0121,0.0105,0.0092,0.0071,0.0076,0.0038,0.003,0.0113,0.0113,0.0112,0.0111,0,0,0.0516,0.0496,0.0494,0.0495,0.0466,0.0459,0.0448,0.0425,0.0421,0.0368,0.0354,0.0284,0.0249,0.0221,0.0179,0.0135,0.0087,0.0104,0.0101,0.0068,-0.0009,0.0013,0.0006,0.0065,0.0064,0.0063,-0.0025,0,0.0533,0.0535,0.0517,0.0526,0.0526,0.0498,0.0496,0.0471,0.0442,0.0419,0.035,0.0318,0.0263,0.0243,0.0188,0.0115,0.0067,0.0113,-0.0008,-0.0012,0.0006,-0.0002,-0.0023,-0.01,-0.0033,-0.0035,-0.0036,0,0.0546,0.0548,0.0563,0.0565,0.0563,0.0563,0.0559,0.0552,0.0508,0.0483,0.0428,0.0375,0.0298,0.0261,0.0119,0.0148,0.007,0.0011,0.0006,0.0007,-0.0004,-0.0096,-0.0118,-0.0049,-0.0048,-0.0047,-0.0046,0,0.0581,0.058,0.0601,0.0598,0.0593,0.0597,0.0597,0.0571,0.0578,0.0525,0.0521,0.0412,0.0374,0.0249,0.012,0.0113,-0.0025,-0.0047,-0.0102,-0.0102,-0.0153,-0.0154,-0.0146,-0.0146,-0.0145,-0.0145,-0.0145,0,0.0605,0.0617,0.062,0.0628,0.066,0.0639,0.0667,0.0649,0.0638,0.0658,0.0557,0.0552,0.0369,0.0272,0.0137,-0.0003,-0.0018,-0.0105,-0.0125,-0.0138,-0.0136,-0.0118,-0.0114,-0.0148,-0.0148,-0.0147,-0.0146,0,0.0637,0.0635,0.0662,0.067,0.0678,0.0703,0.0729,0.075,0.0727,0.0752,0.0741,0.0651,0.0526,0.0346,0.0157,0.0041,-0.0104,-0.0148,-0.0142,-0.016,-0.016,-0.0153,-0.0231,-0.0231,-0.0231,-0.0231,-0.0231,0,0.0651,0.0671,0.0706,0.073,0.0734,0.0769,0.0799,0.0797,0.0826,0.0825,0.0844,0.0743,0.0671,0.04,0.016,-0.0081,-0.0082,-0.021,-0.0225,-0.0158,-0.0171,-0.0163,-0.0156,-0.0287,-0.0287,-0.0287,-0.0288,0,0.0687,0.0705,0.0728,0.0784,0.0821,0.0872,0.0911,0.0946,0.0958,0.0974,0.0987,0.0932,0.0679,0.0418,0.011,-0.004,-0.0178,-0.0221,-0.0176,-0.0239,-0.0212,-0.0223,-0.0215,-0.0291,-0.0291,-0.029,-0.029,-0.029,0.0713,0.0747,0.0785,0.0836,0.0887,0.0952,0.1001,0.1044,0.1098,0.1087,0.1043,0.0931,0.0673,0.0233,0.002,-0.0191,-0.0193,-0.028,-0.0279,-0.0278,-0.0246,-0.0217,-0.0293,-0.0292,-0.0292,-0.0292,-0.0292,0,0.0732,0.0775,0.0831,0.089,0.0952,0.0977,0.1064,0.1112,0.1178,0.1117,0.1065,0.0754,0.047,0.0237,-0.0102,-0.0296,-0.0324,-0.0321,-0.0333,-0.033,-0.0327,-0.0298,-0.0359,-0.0359,-0.0359,-0.0359,0,0,0.0739,0.0795,0.083,0.0928,0.0978,0.1078,0.1134,0.1207,0.1205,0.1099,0.0978,0.0756,0.0497,0.0233,-0.003,-0.0176,-0.0195,-0.0201,-0.0137,-0.0119,-0.0113,-0.0306,-0.0257,0,0,0,0,0]}],[{"header":{"parameterUnit":"m.s-1","parameterCategory":2,"la1":30.2991,"la2":30.254,"lo1":-89.0895,"lo2":-89.0444,"dy":0.0017,"dx":0.0017,"nx":28,"ny":28,"refTime":"2024-04-19T09:00:00:Z","depth":"4","parameterNumber":2,"parameterNumberName":"U-component_of_CURRENTS"},"data":[0,0,0,0,0,0,0,0,0,0,0,0,0,0,0,0,0,0,0,0,0,0,0,0,0,0,0,0,0,0,0,0,0,0,0,0,0,0,0,0,0,0,0,0,0,0,0,0,0,0,0,0,0,0,0,0,0,0,0.0405,0.0405,0,0.0468,0.0468,0.0469,0.0555,0.0556,0.0558,0.0559,0.0576,0.0575,0.0574,0,0,0,0,0,0,0,0,0,0,0,0,0,0.038,0.038,0.0405,0.0405,0.0406,0.0468,0.0469,0.0469,0.0555,0.0556,0.0558,0.0559,0.0576,0.0575,0.0574,0,0,0,0,0,0,0,0,0,0,0,0,0,0.0412,0.038,0.0404,0.0456,0.0461,0.0467,0.0469,0.047,0.0554,0.0556,0.0558,0.056,0.0577,0.0576,0.0574,0.0525,0,0,0.057,0.057,0,0,0,0,0,0,0,0,0.041,0.0413,0.0447,0.0452,0.0458,0.0505,0.0466,0.0486,0.0554,0.0519,0.0559,0.0561,0.0546,0.0548,0.0556,0.0526,0.0527,0.057,0.057,0.0569,0.0569,0,0,0,0,0,0,0,0.0408,0.0411,0.043,0.0448,0.0454,0.0483,0.049,0.0471,0.052,0.0522,0.0529,0.0534,0.0549,0.0557,0.0557,0.0527,0.057,0.0569,0.0569,0.0568,0.0508,0.0508,0,0,0,0,0,0,0.0395,0.0408,0.0428,0.0432,0.0438,0.0482,0.0489,0.0488,0.0521,0.0529,0.0532,0.0538,0.0558,0.0558,0.0558,0.0558,0.0569,0.0568,0.0567,0.0509,0.0508,0.0507,0,0,0,0,0,0,0.0394,0.0396,0.0426,0.0422,0.0428,0.048,0.0478,0.0488,0.0535,0.0529,0.0536,0.0573,0.056,0.056,0.0562,0.0557,0.0567,0.0566,0.051,0.0509,0.0508,0.052,0,0,0,0,0,0,0.0393,0.0395,0.0411,0.042,0.0427,0.0455,0.0476,0.0488,0.0533,0.0542,0.0565,0.0567,0.0562,0.0563,0.056,0.0555,0.0565,0.0511,0.051,0.0508,0.0521,0.052,0.0519,0,0,0,0,0,0.0392,0.0397,0.0411,0.0415,0.044,0.0456,0.0463,0.0507,0.0533,0.0556,0.0563,0.0568,0.0551,0.0562,0.0558,0.0553,0.0512,0.051,0.0508,0.0522,0.052,0.0519,0,0,0,0,0,0,0.0402,0.0406,0.0422,0.0431,0.0455,0.0471,0.0501,0.0521,0.0547,0.0563,0.056,0.0561,0.0558,0.0549,0.0561,0.0528,0.0531,0.0528,0.0542,0.054,0.0539,0.0578,0.0564,0,0,0,0,0,0.0406,0.0413,0.0424,0.0439,0.0452,0.0482,0.0502,0.0526,0.0539,0.0558,0.0561,0.0557,0.0538,0.0539,0.0524,0.0508,0.052,0.05,0.0498,0.0498,0.0525,0.0523,0.0526,0.0501,0.0501,0.0501,0,0,0.041,0.042,0.0424,0.0443,0.0469,0.0487,0.0501,0.0537,0.0553,0.0548,0.0574,0.0556,0.0533,0.0517,0.0514,0.0516,0.0508,0.0495,0.0495,0.0523,0.0522,0.0525,0.0527,0.05,0.05,0.05,0,0,0.0416,0.0438,0.0445,0.0465,0.0501,0.0516,0.0531,0.0553,0.0574,0.0578,0.0572,0.0559,0.054,0.052,0.0506,0.0487,0.0501,0.0476,0.0505,0.0502,0.0505,0.0508,0.0521,0.0525,0.0476,0.0476,0.0476,0,0.043,0.0438,0.0454,0.0471,0.0496,0.0531,0.0551,0.0565,0.0583,0.0587,0.0594,0.056,0.0541,0.0514,0.0511,0.0487,0.05,0.0514,0.0504,0.0506,0.0509,0.0523,0.0527,0.0477,0.0477,0.0476,0.0476,0,0.0432,0.0455,0.0467,0.0498,0.0525,0.0553,0.057,0.0594,0.0614,0.0615,0.0606,0.0575,0.0567,0.0535,0.0523,0.0518,0.0526,0.0503,0.0515,0.0513,0.0526,0.0531,0.0477,0.0477,0.0477,0.0477,0,0,0.042,0.0459,0.0469,0.0495,0.0546,0.0565,0.0593,0.0616,0.0641,0.0635,0.0649,0.0602,0.0605,0.059,0.056,0.0549,0.0567,0.0547,0.0546,0.0576,0.0585,0.0562,0.0564,0.0549,0.055,0.055,0.0586,0,0.0429,0.0453,0.0478,0.0527,0.0546,0.0591,0.0617,0.0642,0.0659,0.0676,0.0643,0.0649,0.0618,0.0625,0.0608,0.0579,0.058,0.0561,0.0571,0.0572,0.0563,0.0569,0.0553,0.059,0.0591,0.0591,0.0592,0,0.0426,0.0445,0.0479,0.0542,0.056,0.0605,0.0669,0.0694,0.0717,0.0726,0.0728,0.072,0.0712,0.0686,0.0664,0.066,0.0643,0.0613,0.0613,0.0598,0.0557,0.0591,0.06,0.0599,0.0599,0.0598,0.0598,0,0.0401,0.0455,0.0486,0.0507,0.0573,0.0619,0.0674,0.0716,0.0738,0.078,0.08,0.0788,0.0799,0.077,0.0716,0.0713,0.0681,0.0662,0.0624,0.0623,0.063,0.0626,0.0662,0.0662,0.0661,0.0661,0.0661,0,0.0394,0.0425,0.0489,0.0508,0.0568,0.0629,0.0703,0.0741,0.0796,0.0798,0.0844,0.0826,0.0826,0.0796,0.0747,0.0698,0.0711,0.065,0.0633,0.0631,0.0627,0.0633,0.0629,0.0663,0.0662,0.0662,0.0662,0,0.0364,0.0398,0.0437,0.052,0.0556,0.0608,0.0729,0.0758,0.0835,0.0844,0.0866,0.0885,0.0865,0.0839,0.0788,0.0745,0.0688,0.0662,0.0677,0.0657,0.0635,0.0631,0.0667,0.0666,0.0666,0.0665,0.0665,0,0.035,0.0361,0.0439,0.0466,0.0519,0.061,0.0657,0.0758,0.0772,0.0829,0.08,0.0846,0.0834,0.0774,0.074,0.07,0.0669,0.0668,0.0654,0.0658,0.0637,0.0634,0.0631,0.0665,0.0664,0.0664,0.0664,0,0.032,0.0351,0.0381,0.0429,0.049,0.0546,0.0622,0.0641,0.0712,0.0773,0.0758,0.0771,0.0758,0.0739,0.0734,0.067,0.0687,0.0664,0.0665,0.0652,0.0655,0.0635,0.0632,0.0663,0.0663,0.0663,0.0663,0,0.0306,0.0317,0.0353,0.0397,0.0454,0.0483,0.0533,0.0571,0.0619,0.0685,0.0648,0.0685,0.0718,0.0718,0.0661,0.0663,0.0664,0.0649,0.065,0.0652,0.0627,0.0628,0.0629,0,0,0,0,0,0.0292,0.0297,0.0321,0.0364,0.041,0.0445,0.0498,0.0537,0.0592,0.0572,0.0633,0.0611,0.0628,0.0632,0.0633,0.0641,0.065,0.0638,0.0628,0.0655,0.0657,0.0626,0,0,0,0,0,0,0.0281,0.0301,0.0304,0.0328,0.0351,0.0395,0.0432,0.0457,0.0464,0.0521,0.0534,0.0585,0.0601,0.0625,0.0623,0.0627,0.0613,0.0664,0.0663,0.0654,0.0656,0.0657,0.0626,0,0,0,0,0]},{"header":{"parameterUnit":"m.s-1","parameterCategory":2,"la1":30.2991,"la2":30.254,"lo1":-89.0895,"lo2":-89.0444,"dy":0.0017,"dx":0.0017,"nx":28,"ny":28,"refTime":"2024-04-19T09:00:00:Z","depth":"4","parameterNumber":3,"parameterNumberName":"V-component_of_CURRENTS"},"data":[0,0,0,0,0,0,0,0,0,0,0,0,0,0,0,0,0,0,0,0,0,0,0,0,0,0,0,0,0,0,0,0,0,0,0,0,0,0,0,0,0,0,0,0,0,0,0,0,0,0,0,0,0,0,0,0,0,0,-0.0085,-0.0085,0,-0.0138,-0.0139,-0.014,-0.0188,-0.0189,-0.0189,-0.019,-0.0245,-0.0246,-0.0247,0,0,0,0,0,0,0,0,0,0,0,0,0,-0.0049,-0.0049,-0.0085,-0.0085,-0.0086,-0.0138,-0.0139,-0.014,-0.0188,-0.0189,-0.0189,-0.019,-0.0245,-0.0246,-0.0247,0,0,0,0,0,0,0,0,0,0,0,0,0,-0.0081,-0.0049,-0.0085,-0.0115,-0.0118,-0.0138,-0.0139,-0.014,-0.0188,-0.0189,-0.0189,-0.019,-0.0244,-0.0246,-0.0248,-0.0245,0,0,-0.0253,-0.0253,0,0,0,0,0,0,0,0,-0.0079,-0.0083,-0.011,-0.0113,-0.0116,-0.0156,-0.0147,-0.0175,-0.0188,-0.0163,-0.019,-0.019,-0.0214,-0.0218,-0.0229,-0.0248,-0.025,-0.0253,-0.0254,-0.0254,-0.0255,0,0,0,0,0,0,0,-0.0077,-0.0081,-0.0108,-0.011,-0.0114,-0.0134,-0.0139,-0.0153,-0.0186,-0.0166,-0.0169,-0.0172,-0.0216,-0.0228,-0.0231,-0.0251,-0.0253,-0.0254,-0.0255,-0.0256,-0.0294,-0.0294,0,0,0,0,0,0,-0.0065,-0.0078,-0.0106,-0.0109,-0.0097,-0.0134,-0.014,-0.0144,-0.0186,-0.0192,-0.0171,-0.0174,-0.0224,-0.0229,-0.0233,-0.0247,-0.0254,-0.0256,-0.0257,-0.0294,-0.0294,-0.0294,0,0,0,0,0,0,-0.0064,-0.0067,-0.0104,-0.0094,-0.01,-0.0133,-0.0138,-0.0145,-0.0176,-0.019,-0.0197,-0.0198,-0.0225,-0.0231,-0.0258,-0.0249,-0.0257,-0.0258,-0.0294,-0.0294,-0.0294,-0.0266,0,0,0,0,0,0,-0.0063,-0.0066,-0.0072,-0.0093,-0.01,-0.013,-0.0137,-0.0145,-0.0175,-0.018,-0.0214,-0.0219,-0.0226,-0.0256,-0.026,-0.0251,-0.026,-0.0294,-0.0294,-0.0294,-0.0267,-0.0265,-0.0264,0,0,0,0,0,-0.0061,-0.0064,-0.0072,-0.0076,-0.0104,-0.013,-0.0136,-0.0163,-0.0176,-0.0194,-0.0213,-0.0219,-0.0259,-0.0258,-0.0262,-0.0254,-0.0294,-0.0294,-0.0294,-0.0268,-0.0265,-0.0264,0,0,0,0,0,0,-0.0056,-0.0069,-0.0079,-0.0088,-0.0113,-0.0138,-0.0154,-0.0173,-0.0204,-0.0211,-0.0226,-0.0232,-0.0249,-0.0261,-0.0259,-0.0266,-0.0275,-0.0276,-0.0253,-0.0251,-0.0249,-0.0254,-0.0261,0,0,0,0,0,-0.0054,-0.0061,-0.0081,-0.0092,-0.0103,-0.0133,-0.0149,-0.0169,-0.0193,-0.0209,-0.0226,-0.0241,-0.0249,-0.026,-0.0271,-0.0281,-0.03,-0.0278,-0.0276,-0.0274,-0.0282,-0.0301,-0.0301,-0.0294,-0.0294,-0.0294,0,0,-0.0054,-0.0064,-0.0068,-0.0092,-0.0113,-0.0133,-0.0146,-0.0175,-0.0195,-0.0208,-0.0238,-0.024,-0.0252,-0.0258,-0.0266,-0.0269,-0.0286,-0.0274,-0.0273,-0.0281,-0.0301,-0.0302,-0.0302,-0.0294,-0.0294,-0.0294,0,0,-0.0054,-0.0069,-0.0073,-0.0093,-0.0123,-0.0144,-0.0156,-0.0186,-0.0206,-0.0227,-0.0236,-0.0243,-0.0257,-0.0263,-0.0266,-0.0268,-0.0278,-0.0259,-0.0254,-0.0271,-0.0272,-0.0273,-0.0297,-0.03,-0.0257,-0.0257,-0.0257,0,-0.0056,-0.0062,-0.0081,-0.0094,-0.0111,-0.015,-0.0167,-0.0193,-0.0228,-0.0238,-0.0236,-0.0251,-0.026,-0.0269,-0.0257,-0.0264,-0.0273,-0.0257,-0.0269,-0.027,-0.0272,-0.0296,-0.03,-0.0256,-0.0256,-0.0256,-0.0256,0,-0.0058,-0.0068,-0.0076,-0.0103,-0.0127,-0.015,-0.0183,-0.0211,-0.0229,-0.0242,-0.0255,-0.026,-0.0264,-0.026,-0.0254,-0.0261,-0.0264,-0.0264,-0.0272,-0.0271,-0.0296,-0.0301,-0.0254,-0.0254,-0.0255,-0.0255,0,0,-0.0048,-0.007,-0.0074,-0.0083,-0.0133,-0.0151,-0.019,-0.0225,-0.0243,-0.0261,-0.0272,-0.027,-0.0261,-0.0265,-0.0258,-0.0269,-0.0278,-0.026,-0.0261,-0.0281,-0.0315,-0.0288,-0.029,-0.027,-0.0271,-0.0271,-0.0329,0,-0.0048,-0.0056,-0.0076,-0.0101,-0.0112,-0.0158,-0.0185,-0.0224,-0.0247,-0.0267,-0.0278,-0.0273,-0.0267,-0.0245,-0.0262,-0.0273,-0.0288,-0.0262,-0.0317,-0.0319,-0.0292,-0.0294,-0.0273,-0.0332,-0.0333,-0.0334,-0.0335,0,-0.0047,-0.005,-0.0061,-0.0089,-0.0099,-0.012,-0.0169,-0.0196,-0.0241,-0.0247,-0.0258,-0.0261,-0.0274,-0.0261,-0.0304,-0.0282,-0.0294,-0.031,-0.0313,-0.0302,-0.03,-0.0336,-0.0343,-0.0343,-0.0342,-0.0341,-0.0341,0,-0.0026,-0.0045,-0.0049,-0.006,-0.0098,-0.0111,-0.0135,-0.0183,-0.0192,-0.0221,-0.0216,-0.0252,-0.0244,-0.0282,-0.0304,-0.0296,-0.0359,-0.0358,-0.0357,-0.0356,-0.0377,-0.0375,-0.0393,-0.0393,-0.0393,-0.0393,-0.0392,0,-0.002,-0.0026,-0.0031,-0.0034,-0.0038,-0.0076,-0.0085,-0.0117,-0.0143,-0.0147,-0.0183,-0.0189,-0.0242,-0.028,-0.0315,-0.035,-0.0369,-0.0362,-0.0368,-0.0364,-0.036,-0.038,-0.0378,-0.0395,-0.0394,-0.0394,-0.0394,0,-0.0006,-0.0012,-0.0012,-0.0027,-0.0026,-0.0028,-0.0036,-0.0043,-0.0067,-0.0076,-0.007,-0.0132,-0.0183,-0.025,-0.0317,-0.0345,-0.0393,-0.0398,-0.0396,-0.04,-0.0381,-0.0377,-0.0416,-0.0415,-0.0415,-0.0414,-0.0414,0,-0.0001,0.0004,0.0009,0.0023,0.002,0.0025,0.0027,0.0004,-0.0,-0.0041,-0.0045,-0.0091,-0.0135,-0.0222,-0.03,-0.0386,-0.0384,-0.0412,-0.0393,-0.0381,-0.0384,-0.038,-0.0376,-0.0413,-0.0413,-0.0413,-0.0413,0,0.0012,0.0015,0.002,0.0059,0.0074,0.0084,0.0087,0.0096,0.0062,0.0043,0.0007,-0.0046,-0.0116,-0.0205,-0.0264,-0.0327,-0.0401,-0.0408,-0.0409,-0.0391,-0.0379,-0.0381,-0.0378,-0.0411,-0.0412,-0.0412,-0.0412,0,0.0026,0.0039,0.0062,0.0094,0.012,0.0136,0.0129,0.0125,0.0121,0.0075,0.0059,-0.0026,-0.0084,-0.0175,-0.0241,-0.0292,-0.0303,-0.0309,-0.0316,-0.0319,-0.0268,-0.0237,-0.0234,0,0,0,0,0,0.0048,0.0073,0.0099,0.0132,0.0158,0.0172,0.0166,0.015,0.0123,0.0116,0.0094,0.0032,-0.0067,-0.0132,-0.0174,-0.0241,-0.0321,-0.0294,-0.0334,-0.0403,-0.0405,-0.0358,0,0,0,0,0,0,0.0064,0.0094,0.0108,0.0166,0.0196,0.0216,0.0213,0.0184,0.0174,0.014,0.0086,0.0045,-0.0059,-0.0023,-0.0162,-0.0186,-0.0213,-0.0351,-0.0351,-0.0402,-0.0403,-0.0405,-0.0358,0,0,0,0,0]}]]